User: anonymous   Login
Location: Passau
(48.5830°N, 13.4830°E)
Time: 20:29:32
(UTC+01:00)
Language:

YUBILEINY - Orbit

View from above orbital plane
View from above orbital plane
View from above satellite
View from above satellite

Ground track
Ground track

The orbit data is extracted from the following two-line orbital elements,

1 32953U 08025A   21341.50778211  .00000021  00000-0  80971-4 0  9991
2 32953  82.5011 303.2977 0019129 322.9618  37.0141 12.43106198614489
Epoch (UTC): 07 December 2021 12:11:12
Eccentricity: 0.0019129
inclination: 82.5011°
perigee height: 1478 km
apogee height: 1508 km
right ascension of ascending node: 303.2977°
argument of perigee: 322.9618°
revolutions per day: 12.43106198
mean anomaly at epoch: 37.0141°
orbit number at epoch: 61448

The dashed part of the orbit path shows where the satellite is in the earth's shadow,  

DLR